GW4987 Weather Reports


Display with metric or nautical units.
time (UTC)temp
F
wind
direction
speed
MPH
gust
MPH
rain 1hr
in
rain 24hr
in
rain mn
in
humidity
%
barometer
mb
20260901213504 80 190 10.0 10.0 0.00 0.00 0.00 43 1022.3
20260901213004 79 149 15.0 25.0 0.00 0.00 0.00 43 1022.3
20260901211003 76 157 4.0 5.0 0.00 0.00 0.00 54 1022.4
20260901210503 76 157 4.0 5.0 0.00 0.00 0.00 54 1022.3
20260901210004 76 157 4.0 5.0 0.00 0.00 0.00 54 1022.6
20260901204004 76 227 9.0 13.0 0.00 0.00 0.00 46 1022.8
20260901203504 76 227 9.0 13.0 0.00 0.00 0.00 46 1022.7
20260901203004 79 154 11.0 15.0 0.00 0.00 0.00 48 1022.6
20260901202503 79 154 11.0 15.0 0.00 0.00 0.00 48 1022.6
20260901202003 79 154 11.0 15.0 0.00 0.00 0.00 48 1022.7
20260901201504 79 154 11.0 15.0 0.00 0.00 0.00 48 1022.7
20260901195503 77 135 17.0 23.0 0.00 0.00 0.00 51 1023.0
20260901195003 77 135 17.0 23.0 0.00 0.00 0.00 51 1023.0
20260901194504 77 135 17.0 23.0 0.00 0.00 0.00 51 1022.8
20260901194004 77 135 17.0 23.0 0.00 0.00 0.00 51 1022.9
20260901193504 77 135 17.0 23.0 0.00 0.00 0.00 51 1022.9
20260901193004 77 135 17.0 23.0 0.00 0.00 0.00 51 1023.0
20260901192503 77 135 17.0 23.0 0.00 0.00 0.00 51 1023.1
20260901192003 77 135 17.0 23.0 0.00 0.00 0.00 51 1023.1
20260901191505 76 180 12.0 16.0 0.00 0.00 0.00 52 1023.0
20260901191004 76 180 12.0 16.0 0.00 0.00 0.00 52 1023.4
20260901190504 77 180 7.0 9.0 0.00 0.00 0.00 50 1023.4
20260901190004 77 180 7.0 9.0 0.00 0.00 0.00 50 1023.4
20260901185503 75 192 13.0 17.0 0.00 0.00 0.00 53 1023.7
20260901185004 76 196 12.0 16.0 0.00 0.00 0.00 54 1023.5
20260901184504 77 158 7.0 12.0 0.00 0.00 0.00 53 1023.6
20260901184003 76 147 16.0 17.0 0.00 0.00 0.00 54 1023.4
20260901183504 77 150 2.0 7.0 0.00 0.00 0.00 51 1023.5
20260901183004 78 218 6.0 13.0 0.00 0.00 0.00 52 1023.4
20260901180004 75 180 7.0 8.0 0.00 0.00 0.00 57 1023.8
20260901175503 75 180 7.0 8.0 0.00 0.00 0.00 57 1023.8
20260901175003 75 180 7.0 8.0 0.00 0.00 0.00 57 1023.8
20260901174504 75 180 7.0 8.0 0.00 0.00 0.00 57 1023.6
20260901174004 75 180 7.0 8.0 0.00 0.00 0.00 57 1023.5
20260901173504 75 180 7.0 8.0 0.00 0.00 0.00 57 1023.5
20260901173004 75 180 7.0 8.0 0.00 0.00 0.00 57 1023.4
20260901170003 75 210 5.0 5.0 0.00 0.00 0.00 57 1023.4
20260901165503 75 185 6.0 7.0 0.00 0.00 0.00 56 1023.4
20260901165004 73 207 6.0 11.0 0.00 0.00 0.00 61 1023.6
20260901164504 73 202 9.0 11.0 0.00 0.00 0.00 60 1023.4
20260901164004 73 202 9.0 11.0 0.00 0.00 0.00 60 1023.2
20260901163504 73 202 9.0 11.0 0.00 0.00 0.00 60 1023.1
20260901163003 73 202 9.0 11.0 0.00 0.00 0.00 60 1023.1
20260901162503 75 137 3.0 3.0 0.00 0.00 0.00 60 1023.2
20260901162003 75 137 3.0 3.0 0.00 0.00 0.00 60 1023.4
20260901160004 70 122 3.0 4.0 0.00 0.00 0.00 67 1022.9
20260901155504 70 122 3.0 4.0 0.00 0.00 0.00 67 1023.1
20260901155005 70 122 3.0 4.0 0.00 0.00 0.00 67 1023.0
20260901153503 70 122 3.0 4.0 0.00 0.00 0.00 67 1023.0
20260901153004 70 122 3.0 4.0 0.00 0.00 0.00 67 1023.0
20260901152504 70 122 3.0 4.0 0.00 0.00 0.00 67 1022.9
20260901152003 70 122 3.0 4.0 0.00 0.00 0.00 67 1022.9
20260901151503 70 122 3.0 4.0 0.00 0.00 0.00 67 1022.9
20260901151004 70 220 4.0 4.0 0.00 0.00 0.00 65 1023.0
20260901150504 70 118 3.0 5.0 0.00 0.00 0.00 65 1022.9
20260901150004 70 133 6.0 6.0 0.00 0.00 0.00 64 1023.0
20260901145504 70 110 5.0 5.0 0.00 0.00 0.00 62 1023.0
20260901145004 70 110 5.0 5.0 0.00 0.00 0.00 62 1023.0
20260901144504 69 86 2.0 3.0 0.00 0.00 0.00 62 1022.9
20260901144004 68 130 4.0 5.0 0.00 0.00 0.00 63 1023.0
20260901143503 68 130 4.0 5.0 0.00 0.00 0.00 63 1023.0
20260901143003 69 118 3.0 4.0 0.00 0.00 0.00 62 1022.9
20260901142504 68 70 2.0 3.0 0.00 0.00 0.00 63 1022.7
20260901142004 68 185 4.0 4.0 0.00 0.00 0.00 62 1022.7
20260901141504 67 136 2.0 6.0 0.00 0.00 0.00 63 1022.8
20260901141004 67 145 2.0 3.0 0.00 0.00 0.00 62 1022.7
20260901140503 67 146 2.0 5.0 0.00 0.00 0.00 63 1022.8
20260901140004 66 140 3.0 5.0 0.00 0.00 0.00 63 1022.9
20260901135503 66 130 4.0 5.0 0.00 0.00 0.00 64 1022.9
20260901135003 66 126 3.0 5.0 0.00 0.00 0.00 64 1022.7
20260901134503 64 181 4.0 4.0 0.00 0.00 0.00 69 1022.9
20260901134004 64 181 4.0 4.0 0.00 0.00 0.00 69 1022.9
20260901133503 64 181 4.0 4.0 0.00 0.00 0.00 69 1022.6
20260901133004 64 181 4.0 4.0 0.00 0.00 0.00 69 1022.7
20260901132504 64 181 4.0 4.0 0.00 0.00 0.00 69 1022.8
20260901132004 64 181 4.0 4.0 0.00 0.00 0.00 69 1022.6
20260901131504 64 181 4.0 4.0 0.00 0.00 0.00 69 1022.8
20260901131004 64 181 4.0 4.0 0.00 0.00 0.00 69 1022.8
20260901130504 64 181 4.0 4.0 0.00 0.00 0.00 69 1022.7
20260901070503 67 180 6.0 6.0 0.00 0.00 0.00 62 1022.4
20260901070003 67 180 6.0 6.0 0.00 0.00 0.00 62 1022.3
20260901065503 67 180 6.0 6.0 0.00 0.00 0.00 62 1022.3
20260901065004 67 180 6.0 6.0 0.00 0.00 0.00 62 1022.3
20260901064504 67 180 6.0 6.0 0.00 0.00 0.00 62 1022.3
20260901031504 68 131 2.0 2.0 0.00 0.00 0.00 65 1021.5
20260901031004 68 131 2.0 2.0 0.00 0.00 0.00 65 1021.6
20260901025003 68 131 2.0 2.0 0.00 0.00 0.00 65 1021.5
20260901024503 68 131 2.0 2.0 0.00 0.00 0.00 65 1021.5
20260901024004 68 131 2.0 2.0 0.00 0.00 0.00 65 1021.3
20260901023503 68 131 2.0 2.0 0.00 0.00 0.00 65 1021.3
20260901023003 68 131 2.0 2.0 0.00 0.00 0.00 65 1021.1
20260901022503 68 131 2.0 2.0 0.00 0.00 0.00 65 1021.1
20260901022004 68 131 2.0 2.0 0.00 0.00 0.00 65 1021.0
20260901021504 69 114 5.0 5.0 0.00 0.00 0.00 63 1021.3
20260901021004 69 114 5.0 5.0 0.00 0.00 0.00 63 1020.9
20260901020504 69 114 5.0 5.0 0.00 0.00 0.00 63 1021.0
20260901020004 69 114 5.0 5.0 0.00 0.00 0.00 63 1021.0
20260901015504 69 113 3.0 5.0 0.00 0.00 0.00 63 1021.0
20260901013503 71 170 5.0 5.0 0.00 0.00 0.00 60 1021.1
20260901013003 71 167 3.0 4.0 0.00 0.00 0.00 60 1021.1
20260901012503 70 204 3.0 3.0 0.00 0.00 0.00 61 1021.0
20260901012003 70 143 5.0 5.0 0.00 0.00 0.00 61 1021.4
20260901011504 70 118 4.0 4.0 0.00 0.00 0.00 60 1020.9
20260901011004 70 125 5.0 5.0 0.00 0.00 0.00 60 1021.1
20260901010503 70 125 4.0 5.0 0.00 0.00 0.00 58 1021.1
20260901010004 70 125 4.0 5.0 0.00 0.00 0.00 58 1021.3
20260901005503 70 125 4.0 5.0 0.00 0.00 0.00 58 1021.4
20260901005003 70 125 4.0 5.0 0.00 0.00 0.00 58 1021.0
20260901004504 70 145 6.0 7.0 0.00 0.00 0.00 58 1021.3
20260901004003 71 145 3.0 7.0 0.00 0.00 0.00 58 1021.1
20260901003503 71 130 3.0 4.0 0.00 0.00 0.00 58 1021.3
20260901003003 71 150 2.0 7.0 0.00 0.00 0.00 58 1021.4
20260901002503 71 149 6.0 7.0 0.00 0.00 0.00 58 1021.4
20260901002004 71 181 4.0 11.0 0.00 0.00 0.00 58 1021.1
20260901001504 72 161 6.0 7.0 0.00 0.00 0.00 57 1021.3
20260831232504 74 185 8.0 9.0 0.00 0.00 0.00 56 1021.5
20260831232004 74 182 8.0 12.0 0.00 0.00 0.00 56 1021.5
20260831231504 73 210 9.0 13.0 0.00 0.00 0.00 56 1021.5
20260831231003 74 250 9.0 12.0 0.00 0.00 0.00 56 1021.5
20260831230503 75 186 5.0 14.0 0.00 0.00 0.00 55 1021.7
20260831230004 75 213 9.0 13.0 0.00 0.00 0.00 54 1021.5
20260831225504 75 181 11.0 15.0 0.00 0.00 0.00 54 1021.4
20260831225004 75 199 12.0 15.0 0.00 0.00 0.00 53 1021.5
20260831224504 75 205 8.0 10.0 0.00 0.00 0.00 54 1021.4
20260831224003 76 147 6.0 13.0 0.00 0.00 0.00 52 1021.5
20260831223503 76 212 11.0 15.0 0.00 0.00 0.00 52 1021.6
20260831223004 76 260 7.0 11.0 0.00 0.00 0.00 51 1021.7
20260831221004 76 207 8.0 9.0 0.00 0.00 0.00 52 1021.4
20260831220504 77 202 3.0 13.0 0.00 0.00 0.00 52 1021.7
20260831220004 75 217 11.0 12.0 0.00 0.00 0.00 54 1021.6
20260831215504 77 209 7.0 10.0 0.00 0.00 0.00 51 1021.6
20260831215004 78 204 6.0 19.0 0.00 0.00 0.00 50 1021.7
20260831214504 78 202 7.0 15.0 0.00 0.00 0.00 50 1021.8
20260831214004 77 201 13.0 14.0 0.00 0.00 0.00 51 1021.8